Waterloo Wellington, Ontario

1:38 PM EDT on September 20, 2017 (GMT -0400)
Waterloo Wellington

Weather History for CYKF - March, 2013

Change the Weather History Date:

Tuesday, March 5, 2013

  Actual Average Record
Temperature  
Mean Temperature 18 °F -  
Max Temperature 29 °F 38 °F 60 °F (2004)
Min Temperature 8 °F 23 °F -7 °F (2014)
Degree Days  
Heating Degree Days 46    
Moisture  
Dew Point 18 °F    
Average Humidity 84    
Maximum Humidity 100    
Minimum Humidity 64    
Precipitation  
Precipitation 0.00 in 0.10 in - ()
Sea Level Pressure  
Sea Level Pressure 30.06 in    
Wind  
Wind Speed 7 mph ()    
Max Wind Speed 24 mph    
Max Gust Speed 31 mph    
Visibility 9.1 miles    
Events Snow    
Averages and records for this station are not official NWS values.
T = Trace of Precipitation, MM = Missing Value Source: Averaged Metar Reports

Daily Weather History Graph

Daily Weather History Graph

Search for Another Location

Airport or City:

Trip Planner

Search our weather history database for the weather conditions in past years. The results will help you decide how hot, cold, wet, or windy it might be!

Date:

Astronomy

Mar. 05, 2013 Rise Set
Actual Time 6:50 AM EST 6:15 PM EST
Civil Twilight 6:22 AM EST 6:44 PM EST
Nautical Twilight 5:49 AM EST 7:17 PM EST
Astronomical Twilight 5:15 AM EST 7:50 PM EST
Moon 2:09 AM EST (3/5) 11:45 AM EST (3/5)
Length of Visible Light 12h 22m
Length of Day
11h 25m
Last Quarter, 41% of the Moon is Illuminated
Mar 5
Last Quarter
Mar 11
New
Mar 19
First Quarter
Mar 27
Full
Apr 3
Last Quarter

Hourly Weather History & Observations

Time (EST) Temp. Windchill Dew Point Humidity Pressure Visibility Wind Dir Wind Speed Gust Speed Precip Events Conditions
12:00 AM 17.6 °F 9.3 °F 14.0 °F 86% 30.11 in 9.0 mi WNW 5.8 mph - N/A   Clear
1:00 AM 15.8 °F 8.6 °F 14.0 °F 93% 30.12 in 9.0 mi West 4.6 mph - N/A   Clear
2:00 AM 14.0 °F 8.2 °F 14.0 °F 100% 30.12 in 9.0 mi West 3.5 mph - N/A   Clear
3:00 AM 14.0 °F 6.5 °F 14.0 °F 100% 30.12 in 9.0 mi NW 4.6 mph - N/A   Clear
4:00 AM 14.0 °F 6.5 °F 12.2 °F 93% 30.12 in 9.0 mi NW 4.6 mph - N/A   Clear
5:00 AM 14.0 °F 6.5 °F 12.2 °F 93% 30.12 in 9.0 mi NW 4.6 mph - N/A   Clear
6:00 AM 10.4 °F - 8.6 °F 92% 30.13 in 9.0 mi North 2.3 mph - N/A   Clear
7:00 AM 10 °F - 7 °F 82% 30.13 in 10 mi North 5.8 mph - -  
7:00 AM 8.6 °F 0.1 °F 6.8 °F 92% 30.13 in 9.0 mi North 4.6 mph - N/A   Clear
7:24 AM 10.4 °F 4.0 °F 8.6 °F 92% 30.13 in 9.0 mi NNW 3.5 mph - N/A   Partly Cloudy
8:00 AM 12.2 °F 6.1 °F 10.4 °F 92% 30.12 in 9.0 mi North 3.5 mph - N/A   Overcast
9:00 AM 17.6 °F 9.3 °F 17.6 °F 100% 30.11 in 9.0 mi NE 5.8 mph - N/A   Overcast
10:00 AM 19.4 °F 9.5 °F 17.6 °F 93% 30.10 in 9.0 mi ENE 8.1 mph - N/A   Overcast
11:00 AM 21.2 °F 13.6 °F 19.4 °F 93% 30.10 in 9.0 mi ESE 5.8 mph - N/A   Overcast
11:31 AM 23.0 °F 17.0 °F 19.4 °F 86% 30.09 in 9.0 mi SE 4.6 mph - N/A   Overcast
12:00 PM 24.8 °F - 17.6 °F 74% 30.10 in 9.0 mi Calm Calm - N/A   Overcast
1:00 PM 25 °F - 19 °F 68% 30.08 in 10 mi NE 4.6 mph - -   Overcast
1:00 PM 24.8 °F 20.5 °F 19.4 °F 80% 30.07 in 9.0 mi NE 3.5 mph - N/A   Overcast
1:35 PM 26.6 °F 19.1 °F 19.4 °F 74% 30.05 in 9.0 mi ENE 6.9 mph - N/A   Scattered Clouds
2:00 PM 28.4 °F 21.2 °F 19.4 °F 69% 30.05 in 9.0 mi ENE 6.9 mph - N/A   Clear
3:00 PM 28.4 °F 18.5 °F 21.2 °F 74% 30.02 in 9.0 mi ENE 11.5 mph - N/A   Clear
4:00 PM 30.2 °F 20.2 °F 19.4 °F 64% 30.00 in 9.0 mi East 12.7 mph - N/A   Clear
4:55 PM 28.4 °F 16.2 °F 21.2 °F 74% 29.98 in 9.0 mi East 17.3 mph - N/A Snow Light Snow
5:00 PM 28.4 °F 17.0 °F 21.2 °F 74% 29.99 in 9.0 mi East 15.0 mph 21.9 mph N/A Snow Light Snow
5:04 PM 28.4 °F 16.6 °F 21.2 °F 74% 29.99 in 9.0 mi East 16.1 mph - N/A   Clear
5:41 PM 26.6 °F 14.3 °F 21.2 °F 80% 29.99 in 9.0 mi East 16.1 mph - N/A Snow Light Snow
5:50 PM 26.6 °F 14.3 °F 21.2 °F 80% 30.00 in 9.0 mi East 16.1 mph - N/A   Partly Cloudy
5:57 PM 26.6 °F 14.7 °F 21.2 °F 80% 30.00 in 9.0 mi East 15.0 mph - N/A   Mostly Cloudy
6:00 PM 26.6 °F 14.3 °F 21.2 °F 80% 30.00 in 9.0 mi East 16.1 mph - N/A   Mostly Cloudy
7:00 PM 26 °F - 22 °F 76% 30.00 in 10 mi East 19.6 mph - -   Overcast
8:00 PM 26.6 °F 14.3 °F 21.2 °F 80% 30.00 in 9.0 mi East 16.1 mph 24.2 mph N/A   Overcast
9:00 PM 26.6 °F 11.7 °F 23.0 °F 86% 29.98 in 9.0 mi East 24.2 mph 31.1 mph N/A   Overcast
10:00 PM 26.6 °F 12.4 °F 24.8 °F 93% 29.96 in 9.0 mi East 21.9 mph 28.8 mph N/A   Overcast
11:00 PM 28.4 °F 14.1 °F 24.8 °F 86% 29.95 in 9.0 mi East 24.2 mph 31.1 mph N/A   Overcast